Location: Unspecified
(0.0000°N, 0.0000°E)
Time: 05:02:04
(UTC+00:00)

SR - All Passes

Search period start: 21 May 2026 00:00
Search period end: 31 May 2026 00:00
Orbit: 568 x 852 km, 66.7° (Epoch: 20 May)

Date Brightness Start Highest point End Pass type
(mag) Time Alt. Az. Time Alt. Az. Time Alt. Az.
21 May - 04:00:22 10° SSW 04:04:37 70° ESE 04:09:10 10° NNE visible
21 May - 14:45:07 10° NE 14:47:06 12° ENE 14:49:02 10° E daylight
21 May - 16:23:17 10° NW 16:28:40 48° WSW 16:33:46 10° S daylight
22 May - 03:06:32 10° SSE 03:09:40 20° ESE 03:12:54 10° ENE visible
22 May - 04:48:09 10° WSW 04:51:02 17° WNW 04:54:01 10° NNW visible
22 May - 15:28:06 10° N 15:33:39 59° ENE 15:38:52 10° SSE daylight
23 May - 03:51:40 10° SSW 03:55:55 59° WNW 04:00:26 10° N visible
23 May - 14:34:24 10° NNE 14:38:30 21° ENE 14:42:28 10° ESE daylight
23 May - 16:15:17 10° NW 16:19:58 28° WSW 16:24:27 10° SSW daylight
24 May - 02:56:57 10° S 03:00:55 37° ESE 03:05:07 10° NE visible
24 May - 15:19:22 10° NNW 15:24:59 81° WSW 15:30:16 10° SSE daylight
25 May - 02:05:04 10° ESE 02:05:58 11° ESE 02:06:53 10° E night (unlit)
25 May - 03:43:24 10° SW 03:47:14 30° WNW 03:51:18 10° N visible
25 May - 14:24:49 10° N 14:29:54 35° ENE 14:34:43 10° SE daylight
25 May - 16:07:58 10° WNW 16:11:16 16° WSW 16:14:27 10° SW daylight
26 May - 02:47:53 10° SSW 02:52:11 73° ESE 02:56:47 10° NNE visible
26 May - 13:32:37 10° NE 13:34:42 12° ENE 13:36:45 10° E daylight
26 May - 15:10:58 10° NW 15:16:17 46° WSW 15:21:19 10° S daylight
27 May - 01:54:00 10° SSE 01:57:13 20° ESE 02:00:35 10° ENE night (unlit)
27 May - 03:35:45 10° WSW 03:38:36 17° WNW 03:41:34 10° NNW visible
27 May - 14:15:44 10° N 14:21:16 60° ENE 14:26:27 10° SSE daylight
28 May - 02:39:13 10° SSW 02:43:28 57° WNW 02:48:02 10° N visible
28 May - 13:21:59 10° NNE 13:26:07 21° ENE 13:30:05 10° ESE daylight
28 May - 15:02:59 10° NW 15:07:35 27° WSW 15:11:57 10° SSW daylight
29 May - 01:44:26 10° S 01:48:29 38° ESE 01:52:45 10° NE night (unlit)
29 May - 14:06:59 10° NNW 14:12:35 79° WSW 14:17:49 10° SSE daylight
30 May - 00:52:14 10° SE 00:53:31 11° ESE 00:54:49 10° E night (unlit)
30 May - 02:30:57 10° SW 02:34:48 30° WNW 02:38:53 10° N night (unlit)
30 May - 13:12:26 10° N 13:17:30 35° ENE 13:22:18 10° SE daylight
30 May - 14:55:44 10° WNW 14:58:51 15° WSW 15:01:54 10° SW daylight
